Location: Staunton
(38.1490°N, 79.0720°W)
Time: 14:47:25
(UTC-04:00)

ISS - Pass Details

Date: 26 July 2017
Orbit: 400 x 408 km, 51.6° (Epoch: 21 July)

Event Time Altitude Azimuth Distance (km) Brightness Sun altitude
Rises 22:31:34 0° 279° (W) 2,305 0.8 -20.0°
Reaches altitude 10° 22:34:28 10° 308° (NW) 1,449 0.1 -20.4°
Maximum altitude 22:36:10 13° 340° (NNW) 1,260 -0.4 -20.6°
Drops below altitude 10° 22:37:53 10° 12° (NNE) 1,451 -0.6 -20.8°
Sets 22:40:47 0° 40° (NE) 2,312 0.1 -21.2°
